#timestamp,LO_Frequency,Hit,StdDev 
1553029215.8,286047011.9,N
1553029235.6,286047007.7,N
1553029255.4,286047005.2,N
1553029275.3,286047010.6,N
1553029295.1,286047016.7,N
1553029315.9,286047015.3,N
1553029335.7,286047015.7,N
1553029355.5,286047006.2,N
1553029375.4,286047010.4,N
1553029395.2,286047008.9,N
1553029415.0,286047014.6,N
1553029415.9,286047014.6,N
1553029435.8,286047007.4,N
1553029455.6,286046999.1,N
1553029475.5,286046996.4,N
1553029495.3,286046991.9,N
1553029515.1,286046988.9,N
1553029535.9,286046988.7,N
1553029555.7,286046988.3,N
1553029575.5,286046986.4,N
1553029595.4,286046989.3,N
1553029615.2,286046998.5,N
1553029635.1,286047002.6,N
1553029636.0,286047002.6,N
1553029655.8,286046995.4,N
1553029675.6,286047005.9,N
1553029695.5,286047007.9,N
1553029715.3,286047012.9,N
1553029735.2,286047013.1,N
1553029755.9,286047016.4,N
1553029775.7,286047010.8,N
1553029795.6,286047001.7,N
1553029815.4,286047002.7,N
1553029835.2,286047003.7,N
1553029855.1,286047000.8,N
1553029856.0,286047000.8,N
1553029875.8,286046999.4,N
1553029895.7,286046997.1,N
1553029915.5,286046999.5,N
1553029935.3,286046996.9,N
1553029955.2,286046995.4,N
1553029975.9,286046993.8,N
1553029995.7,286047010.7,N
1553030015.6,286047015.7,N
1553030035.4,286047013.3,N
1553030055.2,286047010.1,N
1553030075.1,286047008.9,N
1553030076.0,286047008.9,N
1553030095.8,286047017.1,N
1553030115.7,286047028.6,Y
1553030135.5,286047032.8,P
1553030155.3,286047040.9,N
1553030175.2,286047042.6,N
1553030195.0,286047049.6,Y
1553030195.9,286047049.6,P
1553030215.8,286047023.5,N
1553030235.6,286047023.7,N
1553030255.4,286047025.5,N
1553030275.3,286047024.3,N
1553030295.1,286047026.4,N
1553030315.8,286047020.7,N
1553030335.7,286047015.7,N
1553030355.5,286047025.4,N
1553030375.4,286047034.0,Y
1553030395.2,286047015.7,P
1553030415.0,286047018.2,P
1553030415.9,286047018.2,P
1553030435.8,286047020.4,Y
1553030485.6,286047001.0,E
1553030495.6,286046999.4,N
1553030515.4,286046994.7,P
1553030535.2,286046986.5,P
1553030555.1,286046973.6,Y
1553030556.0,286046973.6,P
1553030575.8,286046973.5,N
1553030595.7,286046968.7,P
1553030615.5,286046967.2,Y
1553030635.3,286046995.3,P
1553030655.2,286046999.4,N
1553030675.0,286046996.7,N
1553030675.9,286046996.7,N
1553030695.7,286046993.7,N
1553030715.6,286046994.3,N
1553030735.4,286046989.0,N
1553030755.3,286046979.7,Y
1553030775.1,286046979.8,P
1553030795.8,286046978.7,P
1553030815.7,286046976.0,P
1553030835.5,286046978.2,Y
1553030855.4,286046993.7,P
1553030875.2,286047000.8,N
1553030895.0,286047006.4,N
1553030895.9,286047006.4,N
1553030915.8,286047007.2,N
1553030935.6,286047005.3,N
1553030955.4,286047007.8,N
1553030975.3,286047004.7,N
1553030995.1,286047010.2,N
1553031015.9,286047009.6,N
1553031035.7,286047009.8,N
1553031055.5,286047010.7,N
1553031075.4,286047012.4,N
1553031095.2,286047013.8,N
1553031115.0,286047023.3,N
1553031115.9,286047023.3,N
1553031135.8,286047030.2,Y
1553031155.6,286047027.8,P
1553031175.5,286047040.9,P
1553031195.3,286047047.9,P
1553031215.1,286047052.9,Y
1553031235.9,286047025.0,P
1553031255.7,286047022.2,P
1553031275.5,286047021.8,P
1553031295.4,286047017.6,Y
1553031315.2,286046990.5,P
1553031335.1,286046995.1,N
1553031336.0,286046995.1,N
1553031355.8,286046999.6,N
1553031375.6,286046991.9,N
1553031395.5,286046990.8,N
1553031415.3,286046988.0,N
1553031435.1,286046984.7,N
1553031455.9,286046986.2,N
1553031475.7,286046982.2,N
1553031495.6,286046989.8,N
1553031515.4,286046989.3,N
1553031535.2,286046990.0,N
1553031555.1,286046993.3,N
1553031556.0,286046993.3,N
1553031575.8,286047003.6,N
1553031595.6,286047002.6,N
1553031615.5,286047002.9,N
1553031635.3,286047004.3,N
1553031655.2,286047005.7,N
1553031675.9,286047007.8,N
1553031695.7,286047014.5,N
1553031715.6,286047010.1,N
1553031735.4,286047001.7,N
1553031755.2,286047002.6,N
1553031775.1,286046998.6,N
1553031776.0,286046998.6,N
1553031795.8,286046999.3,N
1553031815.7,286046992.8,N
1553031835.5,286046996.4,N
1553031855.3,286046992.4,N
1553031875.2,286046997.4,N
1553031895.0,286046998.3,N
1553031895.9,286046998.3,N
1553031915.7,286046998.0,N
1553031935.6,286046996.1,N
1553031955.4,286047001.2,N
1553031975.3,286046997.7,N
1553031995.1,286046986.3,N
1553031996.0,286046986.3,N
1553032015.8,286046980.9,N
1553032035.7,286046988.3,N
1553032055.5,286046986.5,N
1553032075.3,286046981.2,N
1553032095.2,286046977.6,N
1553032115.0,286046982.8,N
1553032115.9,286046982.8,N
1553032135.8,286046981.8,N
1553032155.6,286046985.5,N
1553032175.4,286046992.5,N
1553032195.3,286046988.5,N
1553032215.1,286046991.2,N
1553032235.9,286046989.6,N
1553032255.7,286046977.5,Y
1553032275.5,286046977.5,P
1553032295.4,286046981.9,N
1553032315.2,286046981.9,P
1553032335.0,286046981.0,Y
1553032335.9,286046981.0,P
1553032355.8,286046993.5,P
1553032375.6,286046996.6,N
1553032395.5,286046996.5,N
1553032415.3,286046986.2,N
1553032435.1,286046990.0,N
1553032455.9,286046991.5,N
1553032475.7,286046990.1,N
1553032495.5,286046988.5,N
1553032515.4,286046997.2,N
1553032535.2,286046991.8,N
1553032555.1,286046995.9,N
1553032556.0,286046995.9,N
1553032575.8,286046997.0,N
1553032595.6,286047003.2,N
1553032615.5,286047010.0,N
1553032635.3,286047006.2,N
1553032655.1,286046995.7,N
1553032675.9,286046996.0,N
1553032695.7,286046995.0,N
1553032715.6,286046999.3,N
1553032735.4,286046992.0,N
1553032755.2,286046986.1,N
1553032775.1,286046988.5,N
1553032776.0,286046988.5,N
1553032795.8,286047001.2,N
